Back to catalog

STARLINK-11622

AliveCommunicationsVLEO
NORAD 63187·PAYLOAD·🇺🇸 United States

Launched Mar 13, 2025 from Cape Canaveral Space Force Station

Loading…

Next Passes (next 24 hours)

TLE

FreshSource: CelesTrak SupGP

Epoch: Sep 14, 2026, 21:13 UTC

1 63187C 25048E   26257.88451389  .00038207  00000+0  29681-3 0  2577
2 63187  43.0004 259.8747 0001558 253.9355  58.6441 15.70814818    13

Track STARLINK-11622 in real time with AllMySat

Download on the App Store